Onweer van: 25-07-2021 11:00 tot: 20:00 waarschuwing voor: Onweer niveau: Geel info button


waarschuwing voor Onweer Meer informatie blitzortung!


Regen radar Meer informatie rain snow radar


Bezoek onze andere website:

Template documentation
and downloads

And another site



15 daagse weersverwachting Neuchâtel (CH)

  • Overzicht
  • Per uur
  • 15 dagen
  • Extra
  • Vergelijk
  • Kaarten
  • Dagkaart
  • Meer »
  • Info
  • Statistieken
  • Directe link
    Temp 6h Neerslag Wind  
 06:05     21:13    Daglengte: 15:08 Vandaag
08:00
17°
15.5 mm
2
14:00
20°
3.9 mm
2
warningclass
20:00
20°
4.1 mm
2
 06:07     21:12    Daglengte: 15:05 Morgen
02:00
17°
 
2
08:00
17°
 
1
14:00
20°
4.8 mm
1
warningclass
20:00
20°
4.6 mm
2
 06:08     21:11    Daglengte: 15:03 Dinsdag 27 Jul
02:00
15°
 
2
08:00
16°
 
1
14:00
21°
 
2
20:00
19°
3.9 mm
1
 06:09     21:09    Daglengte: 15:00 Woensdag 28 Jul
02:00
17°
13.9 mm
0
Locatie info
Region: Neuchâtel
Latitude: 46.9903°N
Longitude: 6.9311°E
441 masl
Postcode: 2000
Temp/Neerslag /Baro Onweer/Dauwpunt
    Temp Baro 1h Neerslag Dauwpunt Wind UV Bewolking  
 06:05     21:13    Daglengte: 15:08 Vandaag
06:00
17°
1010.7 hPa 14.5 mm
49%
13.0°
1
Windvlaag: -0.5 m/s
65%
07:00
17°
1010.8 hPa 1.0 mm
82%
13.9°
2
Windvlaag: -2 m/s
43%
08:00
17°
1010.8 hPa
82%
13.7°
2
Windvlaag: -2.4 m/s
60%
09:00
18°
1011.1 hPa
82%
13.5°
1
Windvlaag: -2.3 m/s
59%
10:00
19°
1011.3 hPa
80%
13.4°
1
Windvlaag: 1.5 m/s
50%
11:00
19°
1011.3 hPa 1.2 mm
82%
12.9°
2
Windvlaag: 5.9 m/s
53%
12:00
19°
1011.4 hPa
77%
13.0°
2
Windvlaag: 6.1 m/s
35%
13:00
19°
1011.3 hPa 1.5 mm
72%
13.1°
2
Windvlaag: 5.7 m/s
20%
14:00
20°
1011.0 hPa 1.2 mm
74%
13.2°
2
Windvlaag: 4.3 m/s
52% warningclass
15:00
20°
1011.1 hPa 1.6 mm
79%
13.0°
2
Windvlaag: 4.7 m/s
63%
16:00
21°
1010.9 hPa 1.3 mm
82%
12.9°
1
Windvlaag: 4 m/s
22%
17:00
21°
1010.7 hPa 1.2 mm
81%
13.2°
2
Windvlaag: 4.2 m/s
18%
18:00
21°
1010.6 hPa
81%
12.6°
2
Windvlaag: 4.7 m/s
10%
19:00
21°
1010.8 hPa
79%
12.9°
2
Windvlaag: 2.3 m/s
12%
20:00
20°
1011.1 hPa
79%
13.4°
2
Windvlaag: 0.5 m/s
36%
21:00
19°
1011.6 hPa
62%
14.0°
2
Windvlaag: -1.4 m/s
15%
22:00
19°
1012.2 hPa
51%
14.8°
2
Windvlaag: -2.8 m/s
43%
23:00
18°
1012.6 hPa
14%
15.4°
2
Windvlaag: -2.7 m/s
45%
 06:07     21:12    Daglengte: 15:05 Morgen
00:00
18°
1012.8 hPa
54%
15.1°
2
Windvlaag: -2.9 m/s
83%
01:00
17°
1012.7 hPa
18%
15.0°
2
Windvlaag: -2.4 m/s
66%
02:00
17°
1012.7 hPa
53%
15.0°
2
Windvlaag: -2.3 m/s
67%
03:00
17°
1012.8 hPa
24%
15.2°
2
Windvlaag: -2.1 m/s
80%
04:00
17°
1012.8 hPa
64%
15.2°
2
Windvlaag: -1.8 m/s
73%
05:00
17°
1012.8 hPa
31%
15.1°
2
Windvlaag: -1.8 m/s
60%
06:00
16°
1012.9 hPa
71%
14.8°
2
Windvlaag: -1.8 m/s
55%
07:00
16°
1013.3 hPa
74%
14.6°
2
Windvlaag: -1.8 m/s
70%
08:00
17°
1013.6 hPa
79%
14.6°
1
Windvlaag: -1.3 m/s
36%
09:00
18°
1013.9 hPa
82%
14.0°
1
Windvlaag: -0.8 m/s
62%
10:00
18°
1014.3 hPa
82%
13.8°
1
Windvlaag: 0.5 m/s
51%
11:00
19°
1014.4 hPa
82%
13.8°
2
Windvlaag: 3 m/s
73% warningclass
12:00
20°
1014.5 hPa 1.5 mm
82%
14.7°
1
Windvlaag: 4.7 m/s
69% warningclass
13:00
20°
1014.4 hPa 1.6 mm
82%
14.2°
2
Windvlaag: 5.5 m/s
35% warningclass
14:00
20°
1014.1 hPa 1.7 mm
82%
14.9°
1
Windvlaag: 5.2 m/s
35% warningclass
15:00
20°
1013.8 hPa 1.4 mm
82%
16.3°
1
Windvlaag: 4.3 m/s
24%
16:00
21°
1013.6 hPa 1.5 mm
82%
16.6°
2
Windvlaag: 4.8 m/s
19% warningclass
17:00
21°
1013.7 hPa 1.7 mm
74%
15.6°
2
Windvlaag: 4.6 m/s
42%
18:00
21°
1013.7 hPa
66%
15.5°
1
Windvlaag: 2.8 m/s
13%
19:00
21°
1013.8 hPa
54%
15.6°
2
Windvlaag: 0.2 m/s
8%
20:00
20°
1014.3 hPa
58%
15.5°
2
Windvlaag: -0.7 m/s
6%
21:00
19°
1014.7 hPa
59%
16.1°
2
Windvlaag: -2.3 m/s
6%
22:00
18°
1015.4 hPa
14%
15.2°
2
Windvlaag: -3.1 m/s
5%
23:00
16°
1016.0 hPa
21%
13.5°
2
Windvlaag: -3.1 m/s
6%
 06:08     21:11    Daglengte: 15:03 Dinsdag 27 Jul
00:00
16°
1016.2 hPa
21%
12.8°
3
Windvlaag: -2.7 m/s
2%
01:00
16°
1016.0 hPa
21%
12.0°
3
Windvlaag: -2 m/s
2%
02:00
15°
1015.8 hPa
21%
11.2°
2
Windvlaag: -1.8 m/s
4%
03:00
15°
1015.7 hPa
21%
11.0°
2
Windvlaag: -1.5 m/s
4%
04:00
15°
1015.8 hPa
21%
11.2°
2
Windvlaag: -1.3 m/s
9%
05:00
14°
1015.8 hPa
21%
11.0°
1
Windvlaag: -1.2 m/s
23%
06:00
15°
1015.8 hPa
21%
11.5°
1
Windvlaag: -0.9 m/s
34%
07:00
15°
1015.9 hPa
21%
12.1°
1
Windvlaag: -0.6 m/s
36%
08:00
16°
1015.8 hPa
21%
12.0°
1
Windvlaag: -0.6 m/s
47%
09:00
17°
1015.9 hPa
21%
13.0°
1
Windvlaag: 3.1 m/s
12%
10:00
18°
1015.7 hPa
21%
13.4°
1
Windvlaag: 3.9 m/s
52%
11:00
19°
1015.3 hPa
21%
13.3°
1
Windvlaag: 3.5 m/s
78%
12:00
20°
1015.0 hPa
21%
12.8°
1
Windvlaag: 3.5 m/s
74%
13:00
21°
1014.8 hPa
37%
13.4°
2
Windvlaag: 3.6 m/s
75%
14:00
21°
1014.5 hPa
83%
13.4°
2
Windvlaag: 5.3 m/s
90%
15:00
21°
1014.4 hPa
100%
15.4°
3
Windvlaag: 3.9 m/s
91%
16:00
21°
1014.3 hPa
100%
14.6°
2
Windvlaag: 6.1 m/s
91%
17:00
20°
1014.5 hPa 2.0 mm
100%
14.1°
2
Windvlaag: 5.4 m/s
95% warningclass
18:00
20°
1014.4 hPa 2.0 mm
98%
15.7°
1
Windvlaag: 4.7 m/s
88% warningclass
19:00
20°
1014.4 hPa
56%
14.3°
1
Windvlaag: 4.5 m/s
92%
20:00
19°
1015.0 hPa
100%
13.9°
1
Windvlaag: 3.9 m/s
92%
21:00
18°
1015.4 hPa 2.8 mm
100%
14.9°
1
Windvlaag: 3.9 m/s
87%
22:00
17°
1016.2 hPa 2.7 mm
100%
14.2°
1
Windvlaag: 5 m/s
93% warningclass
23:00
16°
1016.3 hPa 2.2 mm
100%
13.9°
1
Windvlaag: 5.2 m/s
96%
 06:09     21:09    Daglengte: 15:00 Woensdag 28 Jul
00:00
17°
1016.4 hPa
80%
13.6°
1
Windvlaag: 7 m/s
64%
01:00
17°
1016.1 hPa 2.1 mm
78%
13.3°
1
Windvlaag: 7.9 m/s
62%
02:00
17°
1016.0 hPa
28%
14.5°
0
Windvlaag: 1.3 m/s
31%
Temp/Neerslag /Baro Onweer/Dauwpunt
    Temp Baro Neerslag Dauwpunt Wind Bewolking  
 06:05     21:13    Daglengte: 15:08 Vandaag
08:00
17°
1010.8 hPa 15.5 mm 13.7°
2
60%
11:00
19°
1011.3 hPa 1.2 mm 12.9°
2
53%
14:00
20°
1011.0 hPa 2.7 mm 13.2°
2
52% warningclass
17:00
21°
1010.7 hPa 4.1 mm 13.2°
2
18%
20:00
20°
1011.1 hPa   13.4°
2
36%
23:00
18°
1012.6 hPa   15.4°
2
45%
 06:07     21:12    Daglengte: 15:05 Morgen
02:00
17°
1012.7 hPa   15.0°
2
67%
05:00
17°
1012.8 hPa   15.1°
2
60%
08:00
17°
1013.6 hPa   14.6°
1
36%
11:00
19°
1014.4 hPa   13.8°
2
73% warningclass
14:00
20°
1014.1 hPa 4.8 mm 14.9°
1
35% warningclass
17:00
21°
1013.7 hPa 4.6 mm 15.6°
2
42%
20:00
20°
1014.3 hPa   15.5°
2
6%
23:00
16°
1016.0 hPa   13.5°
2
6%
 06:08     21:11    Daglengte: 15:03 Dinsdag 27 Jul
02:00
15°
1015.8 hPa   11.2°
2
4%
05:00
14°
1015.8 hPa   11.0°
1
23%
08:00
16°
1015.8 hPa   12.0°
1
47%
11:00
19°
1015.3 hPa   13.3°
1
78%
14:00
21°
1014.5 hPa   13.4°
2
90%
17:00
20°
1014.5 hPa 2.0 mm 14.1°
2
95% warningclass
20:00
19°
1015.0 hPa 2.0 mm 13.9°
1
92%
23:00
16°
1016.3 hPa 7.7 mm 13.9°
1
96%
 06:09     21:09    Daglengte: 15:00 Woensdag 28 Jul
02:00
17°
1016.0 hPa 6.2 mm 14.5°
0
31%
05:00
16°
1016.5 hPa 28.8 mm 13.9°
1
1%
08:00
16°
1017.2 hPa 28.8 mm 14.2°
1
1%
11:00
19°
1017.2 hPa 28.8 mm 14.1°
1
1%
14:00
22°
1016.5 hPa 28.9 mm 14.1°
2
1%
17:00
23°
1015.8 hPa 29.0 mm 14.8°
1
1%
20:00
21°
1016.1 hPa 29.1 mm 16.1°
2
0%
23:00
16°
1017.3 hPa 29.1 mm 13.8°
2
0%
 06:10     21:08    Daglengte: 14:58 Donderdag 29 Jul
02:00
16°
1016.3 hPa 29.1 mm 13.4°
1
0%
05:00
16°
1015.7 hPa 29.1 mm 14.1°
0
1%
08:00
17°
1015.6 hPa 29.1 mm 15.1°
1
1%
11:00
22°
1014.7 hPa 29.1 mm 17.0°
2
1%
14:00
25°
1013.8 hPa 29.3 mm 18.3°
3
0%
17:00
26°
1012.6 hPa 30.6 mm 20.3°
3
0%
20:00
23°
1012.2 hPa 31.6 mm 19.8°
2
0%
23:00
19°
1014.5 hPa 34.9 mm 17.9°
2
1%
 06:11     21:07    Daglengte: 14:56 Vrijdag 30 Jul
02:00
18°
1014.5 hPa 35.3 mm 16.6°
1
1%
05:00
17°
1014.6 hPa 36.3 mm 16.2°
1
1%
08:00
19°
1014.9 hPa 36.7 mm 17.4°
1
1%
11:00
22°
1013.7 hPa 37.2 mm 18.5°
1
1%
14:00
24°
1012.6 hPa 37.4 mm 18.1°
2
1%
17:00
24°
1011.4 hPa 38.4 mm 18.1°
2
1%
20:00
22°
1012.0 hPa 39.2 mm 19.1°
2
1%
23:00
19°
1013.3 hPa 40.4 mm 17.2°
1
1%
 06:13     21:05    Daglengte: 14:52 Zaterdag 31 Jul
02:00
18°
1013.4 hPa 41.7 mm 16.3°
3
1%
05:00
17°
1012.7 hPa 42.3 mm 15.9°
3
0%
08:00
19°
1012.7 hPa 42.4 mm 17.2°
2
0%
11:00
21°
1013.5 hPa 42.4 mm 16.0°
4
1%
14:00
23°
1013.3 hPa 42.5 mm 14.7°
4
0%
17:00
22°
1013.6 hPa 42.7 mm 14.5°
3
1%
20:00
19°
1014.6 hPa 42.7 mm 13.7°
3
1%
23:00
16°
1017.0 hPa 42.8 mm 12.6°
2
1%
 06:14     21:04    Daglengte: 14:50 Zondag 01 Aug
02:00
16°
1017.4 hPa 42.8 mm 11.2°
1
1%
05:00
14°
1017.4 hPa   10.0°
1
1%
08:00
16°
1018.0 hPa 85.7 mm 11.1°
1
0%
14:00
22°
1017.1 hPa 85.7 mm 10.9°
2
0%
20:00
18°
1018.5 hPa 85.7 mm 12.7°
3
0%
 06:15     21:03    Daglengte: 14:48 Maandag 02 Aug
02:00
14°
1021.5 hPa 85.8 mm 11.6°
1
0%
08:00
15°
1021.6 hPa 86.1 mm 11.6°
0
0%
14:00
22°
1019.5 hPa 86.1 mm 12.3°
1
0%
20:00
19°
1019.3 hPa 86.2 mm 14.0°
2
1%
 06:16     21:01    Daglengte: 14:45 Dinsdag 03 Aug
02:00
14°
1019.9 hPa 86.3 mm 11.8°
2
1%
14:00
22°
1015.5 hPa 129.4 mm 14.2°
1
1%
20:00
16°
1015.4 hPa 87.6 mm 14.2°
4
1%
 06:17     21:00    Daglengte: 14:43 Woensdag 04 Aug
02:00
12°
1015.8 hPa 1.3 mm 11.3°
1
50%
08:00
13°
1015.7 hPa 0.6 mm 12.1°
1
59%
14:00
20°
1014.7 hPa 0.7 mm 13.6°
2
56%
20:00
17°
1015.1 hPa 1.3 mm 14.2°
1
54%
 06:19     20:58    Daglengte: 14:39 Donderdag 05 Aug
02:00
13°
1016.8 hPa 0.4 mm 11.0°
1
51%
08:00
14°
1016.6 hPa 0.4 mm 12.0°
1
57%
14:00
20°
1015.6 hPa 1.1 mm 14.2°
2
63%
20:00
18°
1016.0 hPa 0.8 mm 14.8°
1
64%
 06:20     20:57    Daglengte: 14:37 Vrijdag 06 Aug
02:00
13°
1017.2 hPa 0.4 mm 11.7°
1
48%
08:00
14°
1017.2 hPa 1.1 mm 12.4°
1
50%
14:00
20°
1016.1 hPa 1.7 mm 14.7°
2
57%
20:00
18°
1016.2 hPa 2.1 mm 14.9°
1
53%
 06:21     20:55    Daglengte: 14:34 Zaterdag 07 Aug
02:00
13°
1017.6 hPa 1.8 mm 11.9°
1
55%
08:00
14°
1017.6 hPa 1.6 mm 12.5°
1
62%
14:00
20°
1016.7 hPa 2.2 mm 14.7°
2
63%
20:00
18°
1016.8 hPa 1.5 mm 14.9°
1
54%
 06:23     20:54    Daglengte: 14:31 Zondag 08 Aug
02:00
13°
1018.4 hPa 0.8 mm 11.9°
1
52%
08:00
14°
1018.4 hPa 0.8 mm 12.7°
1
53%
14:00
22°
1017.2 hPa 0.8 mm 14.9°
2
52%
20:00
18°
1017.5 hPa 1.6 mm 15.4°
1
51%
 06:24     20:52    Daglengte: 14:28 Maandag 09 Aug
02:00
14°
1018.9 hPa 1.5 mm 12.4°
1
50%
08:00
15°
1018.8 hPa 0.5 mm 13.1°
1
41%
  CAPE Lifted Index Hail Supercell Tornado SRH 3km CL BTM PRES CL TOP PRES Swiss DWD icon SMHI TS
 06:05     21:13    Daglengte: 15:08 Vandaag
06:00 157 J/kg -1.4 K 0 % 0 % 0 % 0 m²/s² 0 0 -0.83 2
07:00 170 J/kg -1.4 K 0 % 0 % 0 % 0 m²/s² 0 0 0.1 3
08:00 467 J/kg -1.8 K 0 % 0 % 0 % 0 m²/s² 0 0 0.6 3
09:00 957 J/kg -3.2 K 0 % 0 % 0 % 0 m²/s² 0 0 -0.35 80
10:00 1086 J/kg -3.5 K 0 % 0 % 0 % 0 m²/s² 0 0 -0.59 80
11:00 898 J/kg -3.1 K 0 % 0 % 0 % 0 m²/s² 0 0 -0.43 80
12:00 694 J/kg -2.7 K 0 % 0 % 0 % 0 m²/s² 0 0 -0.6 3
13:00 1002 J/kg -3.8 K 0 % 0 % 0 % 0 m²/s² 0 0 -1.88 2
14:00 1130 J/kg -4.1 K 0 % 0 % 0 % 0 m²/s² 0 0 -2.27 3
15:00 1111 J/kg -3.8 K 0 % 0 % 0 % 0 m²/s² 0 0 -1.76 3
16:00 1157 J/kg -4.1 K 0 % 0 % 0 % 0 m²/s² 0 0 -1.94 80
17:00 1060 J/kg -3.7 K 0 % 0 % 0 % 0 m²/s² 0 0 -1.54 80
18:00 847 J/kg -3.3 K 0 % 0 % 0 % 0 m²/s² 0 0 -0.99 1
19:00 723 J/kg -2.8 K 0 % 0 % 0 % 0 m²/s² 0 0 -0.7 1
20:00 655 J/kg -2.5 K 0 % 0 % 0 % 0 m²/s² 0 0 -0.67 3
21:00 622 J/kg -2.4 K 0 % 0 % 0 % 0 m²/s² 0 0 -0.57 1
22:00 683 J/kg -2.8 K 0 % 0 % 0 % 0 m²/s² 0 0 -1.03 3
23:00 746 J/kg -2.9 K 0 % 0 % 0 % 0 m²/s² 0 0 -1.19 3
 06:07     21:12    Daglengte: 15:05 Morgen
00:00 689 J/kg -2.7 K 0 % 0 % 0 % 0 m²/s² 0 0 -1.23 3
01:00 670 J/kg -2.6 K 0 % 0 % 0 % 0 m²/s² 0 0 -1.34 3
02:00 616 J/kg -2.9 K 0 % 0 % 0 % 0 m²/s² 0 0 -1.49 80
03:00 583 J/kg -3.2 K 0 % 0 % 0 % 0 m²/s² 0 0 -1.88 3
04:00 448 J/kg -3.3 K 0 % 0 % 0 % 0 m²/s² 0 0 -2.31 3
05:00 399 J/kg -2.9 K 0 % 0 % 0 % 0 m²/s² 0 0 -1.31 3
06:00 234 J/kg -2.4 K 0 % 0 % 0 % 0 m²/s² 0 0 -0.15 3
07:00 178 J/kg -2.6 K 0 % 0 % 0 % 0 m²/s² 0 0 -0.38 3
08:00 381 J/kg -2.1 K 0 % 0 % 0 % 0 m²/s² 0 0 0.51 3
09:00 504 J/kg -2.6 K 0 % 0 % 0 % 0 m²/s² 0 0 0.01 80
10:00 651 J/kg -2.8 K 0 % 0 % 0 % 0 m²/s² 0 0 -0.28 80
11:00 780 J/kg -3.1 K 0 % 0 % 0 % 0 m²/s² 0 0 -0.43 95
12:00 862 J/kg -3.3 K 0 % 0 % 0 % 0 m²/s² 0 0 -0.3 95
13:00 864 J/kg -3.2 K 0 % 0 % 0 % 0 m²/s² 0 0 -0.38 95
14:00 827 J/kg -3.1 K 0 % 0 % 0 % 0 m²/s² 0 0 -0.16 95
15:00 871 J/kg -3.2 K 0 % 0 % 0 % 0 m²/s² 0 0 -0.02 80
16:00 827 J/kg -3.0 K 0 % 0 % 0 % 0 m²/s² 0 0 0.18 95
17:00 644 J/kg -2.2 K 0 % 0 % 0 % 0 m²/s² 0 0 0.89 80
18:00 503 J/kg -1.6 K 0 % 0 % 0 % 0 m²/s² 0 0 1.25 2
19:00 466 J/kg -1.5 K 0 % 0 % 0 % 0 m²/s² 0 0 1.02 2
20:00 407 J/kg -1.3 K 0 % 0 % 0 % 0 m²/s² 0 0 1.79 2
21:00 433 J/kg -1.3 K 0 % 0 % 0 % 0 m²/s² 0 0 2.51 1
22:00 299 J/kg -1.1 K 0 % 0 % 0 % 0 m²/s² 0 0 2.8 0
23:00 183 J/kg -0.8 K 0 % 0 % 0 % 0 m²/s² 0 0 3.22 1
 06:08     21:11    Daglengte: 15:03 Dinsdag 27 Jul
00:00 27 J/kg -0.2 K 0 % 0 % 0 % 0 m²/s² 0 0 3.82 1
01:00 0 J/kg 0.1 K 0 % 0 % 0 % 0 m²/s² 0 0 3.91 1
02:00 0 J/kg 0.0 K 0 % 0 % 0 % 0 m²/s² 0 0 3.72 1
03:00 0 J/kg 0.1 K 0 % 0 % 0 % 0 m²/s² 0 0 3.7 1
04:00 0 J/kg -0.1 K 0 % 0 % 0 % 0 m²/s² 0 0 3.62 1
05:00 0 J/kg -0.2 K 0 % 0 % 0 % 0 m²/s² 0 0 3.4 1
06:00 1 J/kg -0.4 K 0 % 0 % 0 % 0 m²/s² 0 0 2.75 1
07:00 0 J/kg 0.0 K 0 % 0 % 0 % 0 m²/s² 0 0 2.22 3
08:00 1 J/kg 0.1 K 0 % 0 % 0 % 0 m²/s² 0 0 1.93 2
09:00 65 J/kg -0.7 K 0 % 0 % 0 % 0 m²/s² 0 0 0.41 1
10:00 206 J/kg -1.8 K 0 % 0 % 0 % 0 m²/s² 0 0 -0.69 2
11:00 377 J/kg -2.3 K 0 % 0 % 0 % 0 m²/s² 0 0 -1.16 3
12:00 490 J/kg -3.1 K 0 % 0 % 0 % 0 m²/s² 0 0 -1.63 3
13:00 629 J/kg -4.1 K 0 % 0 % 0 % 0 m²/s² 0 0 -1.88 3
14:00 727 J/kg -4.4 K 0 % 0 % 0 % 0 m²/s² 0 0 -1.73 3
15:00 762 J/kg -4.0 K 0 % 0 % 0 % 0 m²/s² 0 0 -1.48 3
16:00 808 J/kg -3.9 K 0 % 0 % 0 % 0 m²/s² 0 0 -1.47 3
17:00 1037 J/kg -4.3 K 0 % 0 % 0 % 0 m²/s² 0 0 -2.2 80
18:00 993 J/kg -4.0 K 0 % 0 % 0 % 0 m²/s² 0 0 -2.59 3
19:00 918 J/kg -3.5 K 0 % 0 % 0 % 0 m²/s² 0 0 -2.39 3
20:00 966 J/kg -3.3 K 0 % 0 % 0 % 0 m²/s² 0 0 -1.77 3
21:00 792 J/kg -2.9 K 0 % 0 % 0 % 0 m²/s² 0 0 -1.64 61
22:00 661 J/kg -3.1 K 0 % 0 % 0 % 0 m²/s² 0 0 -2.11 61
23:00 501 J/kg -2.7 K 0 % 0 % 0 % 0 m²/s² 0 0 -1.86 80
 06:09     21:09    Daglengte: 15:00 Woensdag 28 Jul
00:00 243 J/kg -1.4 K 0 % 0 % 0 % 0 m²/s² 0 0 -0.5 3
01:00 180 J/kg -1.1 K 0 % 0 % 0 % 0 m²/s² 0 0 0.37 3
02:00 155 J/kg -0.7 K 0 % 0 % 0 % 0 m²/s² 0 0 0.41 3
Temp Baro Wind Neerslag
  EWN Forecast EWN WRFDA DWD ICON FMI HIRLAM MET Norway GFS
 06:05     21:13    Daglengte: 15:08 Vandaag
08:00 17.2° 1010.8 hPa 1.9 m/s 15.5 mm 18.5° 1009.2 hPa 1.3 m/s 12.0 mm 16.9° 1011.0 hPa 0.6 m/s 11.9 mm 18.8° 1011.1 hPa 2.9 m/s 0.0 mm 17.3° 1011.6 hPa 0.4 m/s
11:00 18.6° 1011.3 hPa 1.6 m/s 1.2 mm 21.7° 1009.2 hPa 2.4 m/s 12.3 mm 17.2° 1011.8 hPa 1.1 m/s 2.9 mm 21.3° 1011.5 hPa 1.5 m/s 0.0 mm 19.9° 1011.5 hPa 0.6 m/s
14:00 20.1° 1011.0 hPa 1.9 m/s 2.7 mm 23.5° 1009.0 hPa 2.6 m/s 12.3 mm 19.6° 1011.2 hPa 1.0 m/s 0.4 mm 22.2° 1011.0 hPa 2.7 m/s 0.0 mm 21.3° 1011.2 hPa 2.4 m/s
17:00 20.9° 1010.7 hPa 2.0 m/s 4.1 mm 23.7° 1008.9 hPa 3.2 m/s 12.5 mm 20.1° 1011.2 hPa 1.9 m/s 2.4 mm 23.1° 1010.5 hPa 2.2 m/s 0.0 mm 23.0° 1010.7 hPa 2.5 m/s
20:00 20.2° 1011.1 hPa 1.5 m/s 0.0 mm 22.3° 1009.5 hPa 2.1 m/s 12.6 mm 19.8° 1011.1 hPa 1.1 m/s 0.1 mm 21.7° 1011.2 hPa 1.5 m/s 0.0 mm 20.6° 1011.2 hPa 0.7 m/s
23:00 18.1° 1012.6 hPa 2.1 m/s 0.0 mm 19.3° 1011.0 hPa 1.3 m/s 13.0 mm 18.1° 1012.4 hPa 1.1 m/s 0.1 mm 18.8° 1013.1 hPa 2.2 m/s 0.0 mm 16.9° 1013.3 hPa 1.5 m/s
 06:07     21:12    Daglengte: 15:05 Morgen
02:00 17.3° 1012.7 hPa 2.0 m/s 0.0 mm 16.8° 1010.8 hPa 1.6 m/s 14.0 mm 17.5° 1012.6 hPa 1.2 m/s 0.3 mm 18.0° 1013.2 hPa 2.1 m/s 0.0 mm 16.1° 1013.3 hPa 0.8 m/s
05:00 16.7° 1012.8 hPa 1.8 m/s 0.0 mm 17.6° 1011.2 hPa 2.2 m/s 14.8 mm 16.8° 1012.8 hPa 0.4 m/s 0.0 mm 17.0° 1012.9 hPa 1.8 m/s 0.0 mm 15.5° 1013.5 hPa 0.6 m/s
08:00 17.1° 1013.6 hPa 1.2 m/s 0.0 mm 18.8° 1011.7 hPa 2.1 m/s 15.5 mm 16.9° 1013.8 hPa 0.8 m/s 0.9 mm 18.1° 1012.9 hPa 1.1 m/s 0.0 mm 16.9° 1014.3 hPa 0.3 m/s
11:00 19.2° 1014.4 hPa 1.7 m/s 0.0 mm 21.8° 1012.4 hPa 2.5 m/s 15.5 mm 17.6° 1015.1 hPa 1.8 m/s 1.8 mm 21.9° 1012.8 hPa 1.6 m/s 0.0 mm 20.1° 1014.4 hPa 1.4 m/s
14:00 19.8° 1014.1 hPa 1.4 m/s 4.8 mm 23.6° 1012.0 hPa 2.5 m/s 15.5 mm 19.0° 1014.8 hPa 1.9 m/s 2.0 mm 22.6° 1012.1 hPa 0.7 m/s 0.0 mm 22.1° 1014.1 hPa 2.1 m/s
17:00 20.6° 1013.7 hPa 2.0 m/s 4.6 mm 24.1° 1012.1 hPa 2.8 m/s 15.6 mm 19.4° 1014.7 hPa 2.3 m/s 1.8 mm 22.4° 1012.0 hPa 2.1 m/s 0.0 mm 22.7° 1014.0 hPa 1.7 m/s
20:00 20.1° 1014.3 hPa 2.0 m/s 0.0 mm 22.5° 1012.9 hPa 2.0 m/s 15.6 mm 19.7° 1014.9 hPa 2.0 m/s 0.1 mm 21.7° 1012.9 hPa 1.9 m/s 0.0 mm 20.9° 1014.7 hPa 0.6 m/s
23:00 16.4° 1016.0 hPa 2.2 m/s 0.0 mm 16.0° 1014.5 hPa 2.1 m/s 15.6 mm 17.6° 1016.2 hPa 1.7 m/s 0.0 mm 16.3° 1016.8 hPa 1.8 m/s
 06:08     21:11    Daglengte: 15:03 Dinsdag 27 Jul
02:00 15.4° 1015.8 hPa 2.3 m/s 0.0 mm 15.2° 1014.2 hPa 2.7 m/s 15.6 mm 16.4° 1016.0 hPa 1.5 m/s 0.0 mm 15.4° 1017.2 hPa 1.1 m/s
05:00 14.4° 1015.8 hPa 1.5 m/s 0.0 mm 14.0° 1014.0 hPa 2.0 m/s 15.6 mm 15.4° 1016.1 hPa 1.1 m/s 0.0 mm 15.1° 1016.5 hPa 0.6 m/s
08:00 16.2° 1015.8 hPa 1.1 m/s 0.0 mm 17.8° 1014.0 hPa 1.2 m/s 15.6 mm 16.2° 1016.1 hPa 0.5 m/s 0.0 mm 16.9° 1016.2 hPa 0.2 m/s
11:00 19.5° 1015.3 hPa 0.8 m/s 0.0 mm 21.6° 1014.1 hPa 1.7 m/s 15.6 mm 18.9° 1015.6 hPa 0.5 m/s 0.0 mm 19.8° 1015.5 hPa 0.5 m/s
14:00 21.2° 1014.5 hPa 2.1 m/s 0.0 mm 23.1° 1014.2 hPa 2.5 m/s 15.8 mm 20.7° 1014.6 hPa 1.9 m/s 0.0 mm 20.0° 1015.2 hPa 1.6 m/s
17:00 20.3° 1014.5 hPa 2.4 m/s 2.0 mm 23.4° 1013.7 hPa 3.6 m/s 16.3 mm 19.6° 1014.8 hPa 2.1 m/s 0.3 mm 20.8° 1014.8 hPa 1.2 m/s
20:00 19.2° 1015.0 hPa 0.8 m/s 2.0 mm 22.3° 1013.6 hPa 2.1 m/s 17.8 mm 18.4° 1015.3 hPa 0.4 m/s 0.2 mm 18.8° 1015.6 hPa 2.1 m/s
23:00 16.5° 1016.3 hPa 0.8 m/s 7.7 mm 16.8° 1015.3 hPa 3.1 m/s 18.1 mm 16.4° 1016.6 hPa 0.2 m/s 2.4 mm 16.6° 1016.6 hPa 0.7 m/s
 06:09     21:09    Daglengte: 15:00 Woensdag 28 Jul
02:00 16.6° 1016.0 hPa 0.4 m/s 6.2 mm 17.6° 1015.0 hPa 0.7 m/s 18.1 mm 16.4° 1016.3 hPa 0.4 m/s 0.2 mm 16.2° 1016.6 hPa 1.6 m/s
05:00 15.6° 1016.5 hPa 1.3 m/s 28.8 mm 15.6° 1016.5 hPa 1.3 m/s 28.8 mm
08:00 16.2° 1017.2 hPa 0.9 m/s 28.8 mm 16.2° 1017.2 hPa 0.9 m/s 28.8 mm
11:00 19.4° 1017.2 hPa 1.1 m/s 28.8 mm 19.4° 1017.2 hPa 1.1 m/s 28.8 mm
14:00 22.1° 1016.5 hPa 1.7 m/s 28.9 mm 22.1° 1016.5 hPa 1.7 m/s 28.9 mm
17:00 23.2° 1015.8 hPa 1.2 m/s 29.0 mm 23.2° 1015.8 hPa 1.2 m/s 29.0 mm
20:00 20.6° 1016.1 hPa 1.6 m/s 29.1 mm 20.6° 1016.1 hPa 1.6 m/s 29.1 mm
23:00 16.3° 1017.3 hPa 1.5 m/s 29.1 mm 16.3° 1017.3 hPa 1.5 m/s 29.1 mm
 06:10     21:08    Daglengte: 14:58 Donderdag 29 Jul
02:00 15.5° 1016.3 hPa 1.0 m/s 29.1 mm 15.5° 1016.3 hPa 1.0 m/s 29.1 mm
05:00 16.5° 1015.7 hPa 0.5 m/s 29.1 mm 16.5° 1015.7 hPa 0.5 m/s 29.1 mm
08:00 17.3° 1015.6 hPa 0.5 m/s 29.1 mm 17.3° 1015.6 hPa 0.5 m/s 29.1 mm
11:00 21.8° 1014.7 hPa 1.8 m/s 29.1 mm 21.8° 1014.7 hPa 1.8 m/s 29.1 mm
14:00 25.0° 1013.8 hPa 2.7 m/s 29.3 mm 25.0° 1013.8 hPa 2.7 m/s 29.3 mm
17:00 25.8° 1012.6 hPa 3.4 m/s 30.6 mm 25.8° 1012.6 hPa 3.4 m/s 30.6 mm
20:00 23.0° 1012.2 hPa 2.0 m/s 31.6 mm 23.0° 1012.2 hPa 2.0 m/s 31.6 mm
23:00 19.5° 1014.5 hPa 1.8 m/s 34.9 mm 19.5° 1014.5 hPa 1.8 m/s 34.9 mm
 06:11     21:07    Daglengte: 14:56 Vrijdag 30 Jul
02:00 18.0° 1014.5 hPa 0.7 m/s 35.3 mm 18.0° 1014.5 hPa 0.7 m/s 35.3 mm
05:00 17.2° 1014.6 hPa 0.8 m/s 36.3 mm 17.2° 1014.6 hPa 0.8 m/s 36.3 mm
08:00 18.5° 1014.9 hPa 0.6 m/s 36.7 mm 18.5° 1014.9 hPa 0.6 m/s 36.7 mm
11:00 21.9° 1013.7 hPa 1.0 m/s 37.2 mm 21.9° 1013.7 hPa 1.0 m/s 37.2 mm
14:00 23.6° 1012.6 hPa 1.6 m/s 37.4 mm 23.6° 1012.6 hPa 1.6 m/s 37.4 mm
17:00 24.3° 1011.4 hPa 1.7 m/s 38.4 mm 24.3° 1011.4 hPa 1.7 m/s 38.4 mm
20:00 21.7° 1012.0 hPa 1.5 m/s 39.2 mm 21.7° 1012.0 hPa 1.5 m/s 39.2 mm
23:00 19.1° 1013.3 hPa 1.4 m/s 40.4 mm 19.1° 1013.3 hPa 1.4 m/s 40.4 mm
 06:13     21:05    Daglengte: 14:52 Zaterdag 31 Jul
02:00 17.7° 1013.4 hPa 2.7 m/s 41.7 mm 17.7° 1013.4 hPa 2.7 m/s 41.7 mm
05:00 17.1° 1012.7 hPa 2.7 m/s 42.3 mm 17.1° 1012.7 hPa 2.7 m/s 42.3 mm
08:00 18.9° 1012.7 hPa 2.0 m/s 42.4 mm 18.9° 1012.7 hPa 2.0 m/s 42.4 mm
11:00 20.7° 1013.5 hPa 3.5 m/s 42.4 mm 20.7° 1013.5 hPa 3.5 m/s 42.4 mm
14:00 23.0° 1013.3 hPa 4.3 m/s 42.5 mm 23.0° 1013.3 hPa 4.3 m/s 42.5 mm
17:00 22.0° 1013.6 hPa 3.2 m/s 42.7 mm 22.0° 1013.6 hPa 3.2 m/s 42.7 mm
20:00 19.2° 1014.6 hPa 2.8 m/s 42.7 mm 19.2° 1014.6 hPa 2.8 m/s 42.7 mm
23:00 16.0° 1017.0 hPa 2.1 m/s 42.8 mm 16.0° 1017.0 hPa 2.1 m/s 42.8 mm
 06:14     21:04    Daglengte: 14:50 Zondag 01 Aug
02:00 16.4° 1017.4 hPa 1.2 m/s 42.8 mm 16.4° 1017.4 hPa 1.2 m/s 42.8 mm
05:00 14.2° 1017.4 hPa 1.3 m/s 42.8 mm 14.2° 1017.4 hPa 1.3 m/s 42.8 mm
08:00 15.9° 1018.0 hPa 0.7 m/s 42.8 mm 15.9° 1018.0 hPa 0.7 m/s 42.8 mm
14:00 22.1° 1017.1 hPa 2.3 m/s 42.9 mm 22.1° 1017.1 hPa 2.3 m/s 42.9 mm
20:00 18.4° 1018.5 hPa 3.1 m/s 42.9 mm 18.4° 1018.5 hPa 3.1 m/s 42.9 mm
 06:15     21:03    Daglengte: 14:48 Maandag 02 Aug
02:00 13.7° 1021.5 hPa 1.3 m/s 43.0 mm 13.7° 1021.5 hPa 1.3 m/s 43.0 mm
08:00 15.0° 1021.6 hPa 0.2 m/s 43.1 mm 15.0° 1021.6 hPa 0.2 m/s 43.1 mm
14:00 22.0° 1019.5 hPa 1.2 m/s 43.1 mm 22.0° 1019.5 hPa 1.2 m/s 43.1 mm
20:00 18.6° 1019.3 hPa 2.4 m/s 43.1 mm 18.6° 1019.3 hPa 2.4 m/s 43.1 mm
 06:16     21:01    Daglengte: 14:45 Dinsdag 03 Aug
02:00 14.0° 1019.9 hPa 1.6 m/s 43.1 mm 14.0° 1019.9 hPa 1.6 m/s 43.1 mm
14:00 22.3° 1015.5 hPa 1.4 m/s 43.1 mm 22.3° 1015.5 hPa 1.4 m/s 43.1 mm
20:00 16.0° 1015.4 hPa 3.8 m/s 44.5 mm 16.0° 1015.4 hPa 3.8 m/s 44.5 mm
 06:17     21:00    Daglengte: 14:43 Woensdag 04 Aug
02:00 12.2° 1015.8 hPa 1.3 m/s 1.3 mm
08:00 13.2° 1015.7 hPa 1.3 m/s 0.6 mm
14:00 20.1° 1014.7 hPa 1.8 m/s 0.7 mm
20:00 17.4° 1015.1 hPa 1.3 m/s 1.3 mm
 06:19     20:58    Daglengte: 14:39 Donderdag 05 Aug
02:00 12.6° 1016.8 hPa 1.1 m/s 0.4 mm
08:00 13.6° 1016.6 hPa 1.5 m/s 0.4 mm
14:00 20.5° 1015.6 hPa 2.1 m/s 1.1 mm
20:00 17.9° 1016.0 hPa 0.9 m/s 0.8 mm
 06:20     20:57    Daglengte: 14:37 Vrijdag 06 Aug
02:00 13.0° 1017.2 hPa 0.9 m/s 0.4 mm
08:00 13.9° 1017.2 hPa 1.4 m/s 1.1 mm
14:00 20.5° 1016.1 hPa 1.7 m/s 1.7 mm
20:00 17.8° 1016.2 hPa 1.2 m/s 2.1 mm
 06:21     20:55    Daglengte: 14:34 Zaterdag 07 Aug
02:00 13.1° 1017.6 hPa 1.1 m/s 1.8 mm
08:00 13.8° 1017.6 hPa 1.3 m/s 1.6 mm
14:00 20.2° 1016.7 hPa 1.6 m/s 2.2 mm
20:00 18.0° 1016.8 hPa 0.9 m/s 1.5 mm
 06:23     20:54    Daglengte: 14:31 Zondag 08 Aug
02:00 13.2° 1018.4 hPa 1.2 m/s 0.8 mm
08:00 14.0° 1018.4 hPa 1.4 m/s 0.8 mm
14:00 21.6° 1017.2 hPa 1.6 m/s 0.8 mm
20:00 18.5° 1017.5 hPa 0.8 m/s 1.6 mm
 06:24     20:52    Daglengte: 14:28 Maandag 09 Aug
02:00 13.7° 1018.9 hPa 0.9 m/s 1.5 mm
08:00 14.6° 1018.8 hPa 1.3 m/s 0.5 mm
FMI Hirlam - 7.5 km EWN WRFDA - 12 km DWD ICON - 7 km GFS - 25 km Basiskaart






























































Updatetijd (Europe/Amsterdam) Resolutie Lengte Stap
FMI Hirlam 02:00, 08:00, 14:00, 20:00 7.5 km 49h 1h
EWN WRFDA 22:15, 04:15, 10:15, 16:15 12 km 73h 1h
DWD ICON 23:45, 05:45, 11:45, 17:45 7 km 75h 1h
GFS 02:15, 08:15, 14:15, 20:15 25 km 237h 3h
30+ mm
25-30 mm
20-25 mm
15-20 mm
10-15 mm
6-10 mm
4-6 mm
2-4 mm
1-2 mm
0.5-1 mm
0.2-0.5 mm
0.1-0.2 mm
30+ mm
25-30 mm
20-25 mm
15-20 mm
10-15 mm
6-10 mm
4-6 mm
2-4 mm
1-2 mm
0.5-1 mm
0.2-0.5 mm
0.1-0.2 mm
Sneeuwval
Natte sneeuw
Hagel
Vorst
30+ mm
25-30 mm
20-25 mm
15-20 mm
10-15 mm
6-10 mm
4-6 mm
2-4 mm
1-2 mm
0.5-1 mm
0.2-0.5 mm
0.1-0.2 mm
Sneeuwval
Natte sneeuw
Hagel
Vorst
Onweer
50 mm
40 mm
30 mm
26 mm
22 mm
18 mm
14 mm
10 mm
9 mm
8 mm
7 mm
6 mm
5 mm
4.5 mm
4 mm
3.5 mm
3 mm
2.5 mm
2 mm
1.5 mm
1 mm
0.8 mm
0.6 mm
0.4 mm
0.2 mm
0.05 mm
35°
30°
25°
20°
15°
10°
-5°
-10°
-15°
-20°
-25°
-30°
-35°
33> m/s
29 m/s
25 m/s
21 m/s
17 m/s
14 m/s
11 m/s
8 m/s
5 m/s
3 m/s
0 m/s
2600 J/kg
2400 J/kg
2200 J/kg
2000 J/kg
1800 J/kg
1600 J/kg
1400 J/kg
1200 J/kg
1000 J/kg
800 J/kg
600 J/kg
400 J/kg
200 J/kg
70 dBZ
65 dBZ
60 dBZ
55 dBZ
50 dBZ
45 dBZ
40 dBZ
35 dBZ
30 dBZ
25 dBZ
20 dBZ
15 dBZ
10 dBZ
5 dBZ
-1 K
-2 K
-3 K
-4 K
-5 K
-6 K
-7 K
-8 K
-9 K
950 m²/s²
900 m²/s²
850 m²/s²
800 m²/s²
750 m²/s²
700 m²/s²
650 m²/s²
600 m²/s²
550 m²/s²
500 m²/s²
450 m²/s²
400 m²/s²
350 m²/s²
300 m²/s²
250 m²/s²
200 m²/s²
150 m²/s²
100 m²/s²
46 m/s
44 m/s
42 m/s
40 m/s
38 m/s
36 m/s
34 m/s
32 m/s
30 m/s
28 m/s
26 m/s
24 m/s
22 m/s
20 m/s
16 m/s
12 m/s
8 m/s
4 m/s
30 m/s
28 m/s
26 m/s
24 m/s
22 m/s
20 m/s
18 m/s
16 m/s
14 m/s
12 m/s
10 m/s
8 m/s
6 m/s
4 m/s
2 m/s
3.0
2.8
2.6
2.4
2.2
2.0
1.8
1.6
1.4
1.2
1.0
0.8
0.6
0.4
0.2
15
14
13
12
11
10
9
8
7
6
5
4
3
2
1
90%
80%
70%
60%
50%
40%
30%
20%
10%
42
40
38
36
34
32
30
28
26
24
22
20
18
16
14
12
90+ cm
80-90 cm
70-80 cm
60-70 cm
50-60 cm
40-50 cm
30-40 cm
20-30 cm
10-20 cm
1-10 cm
Sneeuwval
Natte sneeuw
Regen
>120 mm
115 mm
110 mm
105 mm
100 mm
95 mm
90 mm
85 mm
80 mm
75 mm
70 mm
65 mm
60 mm
55 mm
50 mm
45 mm
45 mm
40 mm
35 mm
30 mm
25 mm
20 mm
15 mm
10 mm
5 mm
0.1 mm
960 hPa
880 hPa
800 hPa
720 hPa
640 hPa
560 hPa
584 gpdm
568 gpdm
552 gpdm
536 gpdm
520 gpdm
504 gpdm
488 gpdm
Extreem zwaar Noodweer Kans op onweer
15% 15% 5% 50% 15%

Dag




Kaart






35°
30°
25°
20°
15°
10°
-5°
-10°
-15°
-20°
-25°
-30°
-35°
33> m/s
29 m/s
25 m/s
21 m/s
17 m/s
14 m/s
11 m/s
8 m/s
5 m/s
3 m/s
0 m/s
Extreem zwaar Noodweer Kans op onweer
15% 15% 5%